Weather observations for the past three days for
Worland, Worland Municipal Airport
Imperial (Metric)
Date Time (mdt) Wind (mph) Vis. (mi.) Weather Sky Cond. Temperature (ºF) Relative Humidity Wind Chill (°F) Heat Index (°F) Pressure Precipitation (in)
Air Dwpt 6 hour altimeter (in) sea level (mb) 1 hr 3 hr 6 hr
Max. Min.
12 22:53 NW 6 10.00 Fair CLR 68 41 38% 29.9 1007.9
12 21:53 Calm 10.00 Fair CLR 69.1 33.1 26% 29.88 1007.3
12 20:53 NE 3 10.00 Fair CLR 75.9 33.1 21% 76 29.85 1006.0
12 19:53 NW 13 G 25 10.00 Fair CLR 86 28 12% 83 29.83 1005.3
12 18:53 NW 22 G 28 10.00 Fair and Breezy CLR 89.1 28.9 11% 85 29.81 1004.5
12 17:53 W 17 10.00 Fair CLR 91.9 28.9 93.9 84 10% 88 29.81 1005.0
12 16:53 NW 16 G 25 10.00 Fair CLR 93 23 8% 88 29.82 1005.1
12 15:53 Vrbl 7 10.00 Fair CLR 93 21 7% 88 29.82 1005.2
12 14:53 W 5 10.00 Fair CLR 91 28 10% 87 29.84 1005.3
12 13:53 SW 13 G 20 10.00 Fair CLR 91 30 11% 87 29.85 1005.8
12 12:53 SE 6 10.00 Fair CLR 88 30 12% 84 29.89 1007.2
12 10:53 Vrbl 6 10.00 Fair CLR 81 43 26% 80 29.92 1008.9
12 09:53 N 5 10.00 Fair CLR 78.1 39 25% 78 29.93 1008.8
12 08:53 Calm 10.00 Fair CLR 71.1 41 34% 29.94 1009.1
12 07:53 Calm 10.00 Fair CLR 64 48.9 58% 29.93 1008.7
12 05:53 NE 5 10.00 Fair CLR 48.9 44.1 64 48.9 83% 48 29.89 1008.5
12 04:53 S 6 10.00 Fair CLR 52 46 80% 29.87 1007.5
12 03:53 SE 3 10.00 Fair CLR 54 45 72% 29.86 1007.1
12 02:53 SE 5 10.00 Fair CLR 62.1 41 46% 29.86 1006.6
12 01:53 SE 8 10.00 Fair CLR 63 39.9 43% 29.85 1006.4
12 00:53 Calm 10.00 Fair CLR 61 42.1 50% 29.86 1006.8
11 23:53 S 6 10.00 Fair CLR 61 43 88 61 52% 29.86 1007.0
11 22:53 SW 6 10.00 Fair CLR 64.9 45 49% 29.85 1006.6
11 21:53 SE 5 10.00 Fair CLR 69.1 46.9 45% 29.85 1006.4
11 20:53 NW 8 10.00 Fair CLR 75.9 44.1 32% 77 29.82 1005.3
11 19:53 Calm 10.00 Fair CLR 84.9 43 23% 82 29.8 1004.3
11 18:53 N 7 10.00 Fair CLR 87.1 39.9 19% 84 29.8 1004.6
11 17:53 NE 5 10.00 Fair CLR 87.1 39 88 78.1 18% 84 29.81 1005.3
11 16:53 Vrbl 5 10.00 Fair CLR 86 37.9 18% 83 29.83 1006.2
11 15:53 W 7 10.00 Fair CLR 84 39 20% 81 29.87 1007.4
11 14:53 W 8 10.00 Fair CLR 82.9 42.1 24% 81 29.89 1007.9
11 13:53 Vrbl 6 10.00 Fair CLR 82.9 46 27% 81 29.91 1009.0
11 12:53 SW 6 10.00 Fair CLR 82 45 27% 80 29.94 1009.5
11 11:53 Vrbl 5 10.00 Fair CLR 79 46.9 80.1 53.1 32% 79 29.97 1011.2
11 10:53 Vrbl 5 10.00 Fair CLR 75.9 48 37% 78 29.99 1011.7
11 09:53 W 5 10.00 Fair CLR 72 48.9 44% 30.02 1012.7
11 08:53 W 3 10.00 Fair CLR 66.9 51.1 57% 30.02 1012.9
11 07:53 Calm 10.00 Fair CLR 64.9 48 54% 30.04 1013.2
11 06:53 SE 3 10.00 Fair CLR 57.9 48.9 72% 30.04 1013.4
11 05:53 S 7 10.00 Partly Cloudy SCT100 53.1 46.9 63 52 80% 30.03 1013.7
11 04:53 Calm 10.00 Mostly Cloudy BKN100 52 48 86% 30.03 1013.6
11 03:53 S 6 10.00 Partly Cloudy SCT110 53.1 45 74% 30.03 1013.4
11 02:53 S 9 10.00 Mostly Cloudy BKN110 57 44.1 62% 30.03 1013.2
11 01:53 S 6 10.00 A Few Clouds FEW110 53.1 46 77% 30.02 1013.5
11 00:53 Vrbl 3 10.00 Partly Cloudy SCT095 62.1 43 50% 30.02 1012.7
10 23:53 Calm 10.00 A Few Clouds FEW100 55 48.9 79 55 80% 30.01 1013.3
10 22:53 NW 3 10.00 Fair CLR 64 46 52% 30 1012.2
10 21:53 Calm 10.00 Fair CLR 63 48 58% 29.97 1011.7
10 20:53 N 5 10.00 Fair CLR 70 45 41% 29.94 1010.2
10 19:53 N 7 10.00 Fair CLR 75 46 36% 77 29.92 1009.2
10 18:53 NE 7 10.00 Fair CLR 77 46.9 35% 78 29.91 1009.0
10 17:53 NE 7 10.00 Fair CLR 79 48.9 81 71.1 35% 79 29.91 1008.8
10 16:53 N 12 G 20 10.00 Fair CLR 79 46.9 32% 79 29.9 1008.8
10 15:53 NW 12 G 22 10.00 Fair CLR 80.1 48.9 34% 79 29.91 1009.0
10 14:53 N 12 G 21 10.00 Fair CLR 79 50 36% 79 29.92 1009.1
10 13:53 N 9 10.00 Fair CLR 77 52 42% 78 29.93 1009.7
10 12:53 NE 14 G 23 10.00 Fair CLR 75 54 48% 78 29.94 1009.7
10 11:53 N 15 G 21 10.00 A Few Clouds FEW029 71.1 55.9 72 57 59% 29.95 1010.4
10 10:53 N 7 10.00 Fair CLR 70 57 64% 29.93 1009.8
10 09:53 E 6 10.00 Fair CLR 66 57 73% 29.92 1009.7
10 08:53 Calm 10.00 Partly Cloudy SCT120 66 57 73% 29.91 1009.1
10 07:53 Calm 10.00 Fair CLR 64 55 73% 29.92 1008.9
10 06:53 Vrbl 3 10.00 Fair CLR 59 57 93% 29.92 1009.3
10 05:53 Calm 10.00 Fair CLR 57 55.9 64.9 55.9 96% 29.93 1009.8 0.21
10 04:53 N 6 10.00 Fair CLR 57 55 93% 29.93 1010.2
10 03:53 SE 13 10.00 Fair CLR 57.9 55 90% 29.92 1009.8
10 02:53 SE 23 G 29 10.00 Partly Cloudy and Breezy SCT100 57.9 55.9 93% 29.95 1010.6 0.09 0.21
10 01:53 N 9 3.00 Rain Fog/Mist SCT050 BKN070 OVC090 57.9 57 97% 30.04 1013.7 0.12
10 00:53 Calm 10.00 Light Rain BKN110 64.9 52 63% 30.02 1012.8
09 23:53 NW 14 G 20 10.00 Fair CLR 64 52 79 64 65% 30.03 1013.4
Date Time (mdt) Wind (mph) Vis. (mi.) Weather Sky Cond. Air Dwpt Max. Min. Relative Humidity Wind Chill (°F) Heat Index (°F) altimeter (in) sea level (mb) 1 hr 3 hr 6 hr
6 hour
Temperature (ºF) Pressure Precipitation (in)